Weather History for Fargo, ND

Change the Weather History Date:

Wednesday, May 9, 2012

  Actual Average Record
Temperature  
Mean Temperature 52 °F 55 °F  
Max Temperature 67 °F 67 °F 90 °F (1992)
Min Temperature 36 °F 42 °F 20 °F (1966)
Degree Days  
Heating Degree Days 13 11  
Month to date heating degree days 58 108  
Since 1 July heating degree days 6707 8564  
Cooling Degree Days 0 1  
Month to date cooling degree days 0 5  
Year to date cooling degree days 6 8  
Growing Degree Days 1 (Base 50)    
Moisture  
Dew Point 38 °F    
Average Humidity 62    
Maximum Humidity 92    
Minimum Humidity 32    
Precipitation  
Precipitation 0.00 in 0.09 in 1.08 in (1882)
Month to date precipitation 0.21 0.71  
Year to date precipitation 3.62 4.71  
Snow  
Snow 0.00 in 0.00 in 0.60 in (1902)
Month to date snowfall 0.0 0.0  
Since 1 July snowfall 27.0 50.4  
Snow Depth 0.00 in    
Sea Level Pressure  
Sea Level Pressure 30.01 in    
Wind  
Wind Speed 7 mph (SSW)    
Max Wind Speed 16 mph    
Max Gust Speed 23 mph    
Visibility 9 miles    
Events      
T = Trace of Precipitation, MM = Missing Value Source: NWS Daily Summary

Daily Weather History Graph

Daily Weather History Graph

Search for Another Location

Airport:

Trip Planner

Search our weather history database for the weather conditions in past years. The results will help you decide how hot, cold, wet, or windy it might be!

Date:

Astronomy

May. 09, 2012 Rise Set
Actual Time 5:59 AM CDT 8:48 PM CDT
Civil Twilight 5:24 AM CDT 9:24 PM CDT
Nautical Twilight 4:39 AM CDT 10:09 PM CDT
Astronomical Twilight 3:46 AM CDT 11:02 PM CDT
Moon 12:03 AM CDT (5/9) 9:11 AM CDT (5/9)
Length of Visible Light 15h 59m
Length of Day
14h 49m
Waning Gibbous, 82% of the Moon is Illuminated
May 9
Waning Gibbous
May 12
Last Quarter
May 20
New
May 28
First Quarter
Jun 4
Full

Hourly Weather History & Observations

Time (CDT) Temp. Windchill Dew Point Humidity Pressure Visibility Wind Dir Wind Speed Gust Speed Precip Events Conditions
12:53 AM 50.0 °F - 43.0 °F 77% 30.10 in 10.0 mi NNW 4.6 mph - N/A   Overcast
1:53 AM 48.9 °F - 42.1 °F 77% 30.10 in 10.0 mi NNW 5.8 mph - N/A   Overcast
2:53 AM 44.1 °F 40.8 °F 39.0 °F 82% 30.09 in 10.0 mi NNW 5.8 mph - N/A   Clear
3:53 AM 39.9 °F - 36.0 °F 86% 30.09 in 10.0 mi Calm Calm - N/A   Clear
4:53 AM 37.9 °F 35.5 °F 36.0 °F 93% 30.09 in 2.5 mi NNW 3.5 mph - N/A   Clear
5:00 AM 37.4 °F 34.9 °F 35.6 °F 93% 30.07 in 8.0 mi NNW 3.5 mph - N/A   Clear
5:53 AM 37.9 °F 35.5 °F 35.1 °F 89% 30.10 in 6.0 mi NNW 3.5 mph - N/A   Clear
6:53 AM 41.0 °F - 37.9 °F 89% 30.10 in 4.0 mi Calm Calm - N/A   Clear
7:53 AM 48.0 °F - 42.1 °F 80% 30.10 in 8.0 mi Calm Calm - N/A   Clear
8:53 AM 51.1 °F - 42.1 °F 71% 30.10 in 10.0 mi Calm Calm - N/A   Clear
9:53 AM 55.0 °F - 42.1 °F 62% 30.09 in 10.0 mi WSW 3.5 mph - N/A   Clear
10:53 AM 57.9 °F - 39.0 °F 49% 30.08 in 10.0 mi Calm Calm - N/A   Clear
11:53 AM 57.9 °F - 37.9 °F 47% 30.06 in 10.0 mi SSW 8.1 mph - N/A   Scattered Clouds
12:53 PM 60.1 °F - 37.9 °F 44% 30.03 in 10.0 mi SE 6.9 mph - N/A   Clear
1:53 PM 63.0 °F - 37.9 °F 40% 30.00 in 10.0 mi SSE 8.1 mph - N/A   Partly Cloudy
2:53 PM 64.0 °F - 36.0 °F 35% 29.98 in 10.0 mi Variable 6.9 mph 19.6 mph N/A   Clear
3:53 PM 66.0 °F - 37.9 °F 36% 29.95 in 10.0 mi SSW 10.4 mph 23.0 mph N/A   Clear
4:53 PM 66.9 °F - 37.0 °F 33% 29.93 in 10.0 mi SSW 12.7 mph 21.9 mph N/A   Clear
5:53 PM 66.0 °F - 36.0 °F 33% 29.91 in 10.0 mi South 11.5 mph - N/A   Clear
6:53 PM 66.0 °F - 37.0 °F 34% 29.90 in 10.0 mi SSW 10.4 mph - N/A   Clear
7:53 PM 64.0 °F - 36.0 °F 35% 29.88 in 10.0 mi South 15.0 mph - N/A   Clear
8:53 PM 60.1 °F - 36.0 °F 41% 29.88 in 10.0 mi South 8.1 mph - N/A   Clear
9:53 PM 60.1 °F - 37.0 °F 42% 29.88 in 10.0 mi SSE 8.1 mph - N/A   Clear
10:53 PM 57.9 °F - 37.9 °F 47% 29.87 in 10.0 mi SSE 9.2 mph - N/A   Clear
11:53 PM 55.9 °F - 37.9 °F 51% 29.87 in 10.0 mi SSE 10.4 mph - N/A   Clear